TimeEST,TemperatureF,Dew PointF,Humidity,Sea Level PressureIn,VisibilityMPH,Wind Direction,Wind SpeedMPH,Gust SpeedMPH,PrecipitationIn,Events,Conditions,WindDirDegrees,DateUTC
12:35 AM,12.2,-0.4,57,29.98,10.0,Calm,Calm,-,N/A,,Scattered Clouds,0,2014-02-16 05:35:00
12:55 AM,14.0,-0.4,53,29.97,10.0,South,4.6,-,N/A,,Mostly Cloudy,170,2014-02-16 05:55:00
1:15 AM,14.0,1.4,57,29.96,10.0,South,5.8,-,N/A,,Mostly Cloudy,170,2014-02-16 06:15:00
1:35 AM,14.0,-0.4,53,29.96,10.0,South,4.6,-,N/A,,Mostly Cloudy,170,2014-02-16 06:35:00
1:55 AM,14.0,3.2,62,29.95,10.0,South,3.5,-,N/A,,Overcast,190,2014-02-16 06:55:00
2:15 AM,15.8,6.8,68,29.95,10.0,Calm,Calm,-,N/A,,Overcast,0,2014-02-16 07:15:00
2:35 AM,15.8,1.4,53,29.96,10.0,Calm,Calm,-,N/A,,Overcast,0,2014-02-16 07:35:00
2:55 AM,14.0,3.2,62,29.96,10.0,Calm,Calm,-,N/A,,Overcast,0,2014-02-16 07:55:00
3:15 AM,15.8,8.6,73,29.94,10.0,SE,4.6,-,N/A,,Mostly Cloudy,130,2014-02-16 08:15:00
3:35 AM,15.8,6.8,68,29.94,4.0,Calm,Calm,-,N/A,,Overcast,0,2014-02-16 08:35:00
3:55 AM,14.0,5.0,67,29.93,3.0,Calm,Calm,-,N/A,,Overcast,0,2014-02-16 08:55:00
4:15 AM,14.0,3.2,62,29.92,2.5,SSE,3.5,-,N/A,,Overcast,160,2014-02-16 09:15:00
4:35 AM,14.0,6.8,73,29.92,4.0,Calm,Calm,-,N/A,,Mostly Cloudy,0,2014-02-16 09:35:00
4:55 AM,14.0,10.4,86,29.91,5.0,Calm,Calm,-,N/A,,Mostly Cloudy,0,2014-02-16 09:55:00
5:15 AM,15.8,12.2,86,29.90,7.0,Calm,Calm,-,N/A,,Overcast,0,2014-02-16 10:15:00
5:35 AM,15.8,3.2,58,29.88,8.0,SSE,5.8,-,N/A,,Mostly Cloudy,150,2014-02-16 10:35:00
5:55 AM,15.8,5.0,62,29.90,9.0,Calm,Calm,-,N/A,,Overcast,0,2014-02-16 10:55:00
6:15 AM,15.8,6.8,68,29.90,8.0,SSW,3.5,-,N/A,,Overcast,210,2014-02-16 11:15:00
6:35 AM,15.8,3.2,58,29.91,5.0,Calm,Calm,-,N/A,,Overcast,0,2014-02-16 11:35:00
6:55 AM,15.8,3.2,58,29.90,7.0,Calm,Calm,-,N/A,,Overcast,0,2014-02-16 11:55:00
7:15 AM,15.8,3.2,58,29.91,8.0,Calm,Calm,-,N/A,,Overcast,0,2014-02-16 12:15:00
7:35 AM,17.6,6.8,63,29.93,8.0,Calm,Calm,-,N/A,,Overcast,0,2014-02-16 12:35:00
7:55 AM,15.8,6.8,68,29.93,8.0,Calm,Calm,-,N/A,,Overcast,0,2014-02-16 12:55:00
8:15 AM,17.6,12.2,79,29.94,8.0,Calm,Calm,-,N/A,,Overcast,0,2014-02-16 13:15:00
8:35 AM,17.6,6.8,63,29.96,7.0,Calm,Calm,-,N/A,,Overcast,0,2014-02-16 13:35:00
8:55 AM,17.6,6.8,63,29.97,7.0,WNW,4.6,-,N/A,,Mostly Cloudy,300,2014-02-16 13:55:00
9:15 AM,19.4,8.6,63,29.97,6.0,NW,8.1,-,N/A,,Overcast,310,2014-02-16 14:15:00
9:35 AM,19.4,8.6,63,29.97,7.0,NW,10.4,-,N/A,,Overcast,320,2014-02-16 14:35:00
9:55 AM,19.4,8.6,63,29.98,4.0,NW,9.2,-,N/A,,Overcast,320,2014-02-16 14:55:00
10:15 AM,19.4,8.6,63,29.99,6.0,NW,9.2,-,N/A,,Mostly Cloudy,320,2014-02-16 15:15:00
10:35 AM,19.4,8.6,63,29.99,6.0,NW,8.1,-,N/A,,Mostly Cloudy,320,2014-02-16 15:35:00
10:55 AM,21.2,8.6,58,30.00,6.0,NNW,8.1,-,N/A,,Mostly Cloudy,330,2014-02-16 15:55:00
11:15 AM,21.2,10.4,63,30.01,9.0,NNW,9.2,-,N/A,,Overcast,340,2014-02-16 16:15:00
11:35 AM,21.2,10.4,63,30.02,10.0,NNW,6.9,-,N/A,,Mostly Cloudy,330,2014-02-16 16:35:00
11:55 AM,23.0,10.4,59,30.03,10.0,NNW,6.9,-,N/A,,Mostly Cloudy,330,2014-02-16 16:55:00
12:15 PM,23.0,12.2,63,30.04,10.0,NNW,6.9,-,N/A,,Overcast,330,2014-02-16 17:15:00
12:35 PM,24.8,12.2,59,30.04,10.0,NW,9.2,-,N/A,,Mostly Cloudy,320,2014-02-16 17:35:00
12:55 PM,24.8,12.2,59,30.04,10.0,NW,8.1,-,N/A,,Overcast,310,2014-02-16 17:55:00
1:15 PM,26.6,14.0,59,30.04,10.0,NNW,8.1,-,N/A,,Overcast,330,2014-02-16 18:15:00
1:35 PM,26.6,12.2,55,30.04,10.0,NNW,8.1,-,N/A,,Overcast,330,2014-02-16 18:35:00
1:55 PM,26.6,14.0,59,30.05,10.0,NW,6.9,-,N/A,,Overcast,320,2014-02-16 18:55:00
2:15 PM,26.6,12.2,55,30.06,10.0,NNW,8.1,-,N/A,,Overcast,340,2014-02-16 19:15:00
2:35 PM,24.8,12.2,59,30.07,10.0,NW,8.1,-,N/A,,Overcast,310,2014-02-16 19:35:00
2:55 PM,26.6,12.2,55,30.07,10.0,NW,6.9,-,N/A,,Overcast,320,2014-02-16 19:55:00
3:15 PM,26.6,12.2,55,30.08,10.0,NNW,8.1,-,N/A,,Overcast,340,2014-02-16 20:15:00
3:35 PM,26.6,14.0,59,30.09,10.0,NNW,9.2,-,N/A,,Overcast,330,2014-02-16 20:35:00
3:55 PM,24.8,15.8,69,30.10,2.5,NNW,6.9,-,N/A,,Overcast,340,2014-02-16 20:55:00
4:15 PM,24.8,12.2,59,30.11,9.0,North,5.8,-,N/A,,Overcast,10,2014-02-16 21:15:00
4:35 PM,24.8,12.2,59,30.12,7.0,North,5.8,-,N/A,,Overcast,10,2014-02-16 21:35:00
4:55 PM,24.8,10.4,54,30.14,10.0,North,4.6,-,N/A,,Scattered Clouds,360,2014-02-16 21:55:00
5:15 PM,24.8,10.4,54,30.15,10.0,NNE,4.6,-,N/A,,Scattered Clouds,30,2014-02-16 22:15:00
5:35 PM,23.0,10.4,59,30.16,10.0,NNE,4.6,-,N/A,,Partly Cloudy,20,2014-02-16 22:35:00
5:55 PM,23.0,10.4,59,30.17,10.0,Calm,Calm,-,N/A,,Clear,0,2014-02-16 22:55:00
6:15 PM,21.2,8.6,58,30.18,10.0,Variable,3.5,-,N/A,,Mostly Cloudy,0,2014-02-16 23:15:00
6:35 PM,23.0,8.6,54,30.20,10.0,ENE,3.5,-,N/A,,Overcast,60,2014-02-16 23:35:00
6:55 PM,21.2,6.8,54,30.22,10.0,ENE,5.8,-,N/A,,Mostly Cloudy,60,2014-02-16 23:55:00
7:15 PM,21.2,6.8,54,30.23,10.0,NE,3.5,-,N/A,,Mostly Cloudy,50,2014-02-17 00:15:00
7:35 PM,19.4,6.8,58,30.25,10.0,ENE,3.5,-,N/A,,Overcast,70,2014-02-17 00:35:00
7:55 PM,19.4,6.8,58,30.25,10.0,East,5.8,-,N/A,,Overcast,80,2014-02-17 00:55:00
8:15 PM,19.4,8.6,63,30.26,10.0,ENE,3.5,-,N/A,,Overcast,70,2014-02-17 01:15:00
8:35 PM,19.4,5.0,54,30.26,10.0,ENE,4.6,-,N/A,,Overcast,70,2014-02-17 01:35:00
8:55 PM,19.4,3.2,49,30.27,10.0,East,6.9,-,N/A,,Overcast,80,2014-02-17 01:55:00
9:15 PM,17.6,6.8,63,30.28,10.0,ENE,4.6,-,N/A,,Mostly Cloudy,70,2014-02-17 02:15:00
9:35 PM,15.8,10.4,79,30.27,10.0,East,6.9,-,N/A,,Partly Cloudy,80,2014-02-17 02:35:00
9:55 PM,17.6,10.4,73,30.27,10.0,East,5.8,-,N/A,,Mostly Cloudy,90,2014-02-17 02:55:00
10:15 PM,15.8,8.6,73,30.27,10.0,East,5.8,-,N/A,,Scattered Clouds,90,2014-02-17 03:15:00
10:35 PM,15.8,6.8,68,30.28,10.0,East,6.9,-,N/A,,Clear,90,2014-02-17 03:35:00
10:55 PM,15.8,8.6,73,30.28,10.0,East,9.2,-,N/A,,Clear,90,2014-02-17 03:55:00
11:15 PM,15.8,8.6,73,30.28,10.0,East,6.9,-,N/A,,Clear,90,2014-02-17 04:15:00
11:35 PM,14.0,10.4,86,30.27,10.0,East,8.1,-,N/A,,Clear,100,2014-02-17 04:35:00
11:55 PM,12.2,8.6,85,30.28,10.0,ESE,5.8,-,N/A,,Clear,120,2014-02-17 04:55:00